Time,TemperatureF,DewpointF,PressureIn,WindDirection,WindDirectionDegrees,WindSpeedMPH,WindSpeedGustMPH,Humidity,HourlyPrecipIn,Conditions,Clouds,dailyrainin,SoftwareType,DateUTC
2013-06-20 00:01:00,46.8,33.2,24.63,SW,232,7.6,7.6,59,0.00,,---,0.00,VWS V14.01,2013-06-20 06:01:00,
2013-06-20 00:06:00,46.9,33.0,24.63,WSW,237,6.7,6.7,58,0.00,,---,0.00,VWS V14.01,2013-06-20 06:06:00,
2013-06-20 00:11:00,46.9,33.0,24.63,WSW,247,2.2,3.6,58,0.00,,---,0.00,VWS V14.01,2013-06-20 06:11:00,
2013-06-20 00:16:00,47.1,31.8,24.63,SSE,155,3.6,11.9,55,0.00,,---,0.00,VWS V14.01,2013-06-20 06:16:00,
2013-06-20 00:21:00,46.8,32.3,24.63,SE,133,5.8,8.1,57,0.00,,---,0.00,VWS V14.01,2013-06-20 06:21:00,
2013-06-20 00:26:00,46.4,32.9,24.63,SSW,192,4.9,5.8,59,0.00,,---,0.00,VWS V14.01,2013-06-20 06:26:00,
2013-06-20 00:31:00,46.4,32.4,24.63,West,268,2.7,2.7,58,0.00,,---,0.00,VWS V14.01,2013-06-20 06:31:00,
2013-06-20 00:36:00,46.4,33.3,24.63,SW,223,4.9,4.9,60,0.00,,---,0.00,VWS V14.01,2013-06-20 06:36:00,
2013-06-20 00:41:00,46.8,31.0,24.63,SE,130,4.9,8.1,54,0.00,,---,0.00,VWS V14.01,2013-06-20 06:41:00,
2013-06-20 00:46:00,46.4,30.7,24.63,WSW,247,15.0,15.0,54,0.00,,---,0.00,VWS V14.01,2013-06-20 06:46:00,
2013-06-20 00:51:00,46.2,31.0,24.63,SW,217,5.4,11.0,55,0.00,,---,0.00,VWS V14.01,2013-06-20 06:51:00,
2013-06-20 00:56:00,46.2,30.5,24.63,SW,219,8.1,9.2,54,0.00,,---,0.00,VWS V14.01,2013-06-20 06:56:00,
2013-06-20 01:01:00,46.2,31.0,24.63,West,261,10.5,10.5,55,0.00,,---,0.00,VWS V14.01,2013-06-20 07:01:00,
2013-06-20 01:06:00,46.2,31.0,24.63,SSW,194,6.7,10.1,55,0.00,,---,0.00,VWS V14.01,2013-06-20 07:06:00,
2013-06-20 01:11:00,46.2,30.5,24.63,SE,136,7.2,7.2,54,0.00,,---,0.00,VWS V14.01,2013-06-20 07:11:00,
2013-06-20 01:16:00,46.4,30.2,24.63,South,187,4.0,7.6,53,0.00,,---,0.00,VWS V14.01,2013-06-20 07:16:00,
2013-06-20 01:21:00,46.2,30.5,24.63,ESE,122,7.6,15.0,54,0.00,,---,0.00,VWS V14.01,2013-06-20 07:21:00,
2013-06-20 01:26:00,46.4,30.2,24.63,SSW,192,4.5,8.7,53,0.00,,---,0.00,VWS V14.01,2013-06-20 07:26:00,
2013-06-20 01:31:00,46.9,29.8,24.63,SSW,210,6.3,8.1,51,0.00,,---,0.00,VWS V14.01,2013-06-20 07:31:00,
2013-06-20 01:36:00,47.1,30.4,24.63,SSW,207,6.3,6.3,52,0.00,,---,0.00,VWS V14.01,2013-06-20 07:36:00,
2013-06-20 01:41:00,46.8,30.1,24.63,SW,219,4.9,4.9,52,0.00,,---,0.00,VWS V14.01,2013-06-20 07:41:00,
2013-06-20 01:46:00,46.9,30.2,24.63,SW,229,4.0,8.7,52,0.00,,---,0.00,VWS V14.01,2013-06-20 07:46:00,
2013-06-20 01:51:00,46.8,30.1,24.63,SSE,151,5.4,5.4,52,0.00,,---,0.00,VWS V14.01,2013-06-20 07:51:00,
2013-06-20 01:56:00,46.6,30.4,24.63,SSE,158,5.4,8.7,53,0.00,,---,0.00,VWS V14.01,2013-06-20 07:56:00,
2013-06-20 02:01:00,46.4,30.2,24.63,South,185,6.3,12.8,53,0.00,,---,0.00,VWS V14.01,2013-06-20 08:01:00,
2013-06-20 02:06:00,46.0,31.2,24.63,ESE,112,7.6,8.7,56,0.00,,---,0.00,VWS V14.01,2013-06-20 08:06:00,
2013-06-20 02:11:00,45.7,31.3,24.63,SE,133,8.1,11.9,57,0.00,,---,0.00,VWS V14.01,2013-06-20 08:11:00,
2013-06-20 02:16:00,45.5,31.6,24.63,SW,217,14.5,16.8,58,0.00,,---,0.00,VWS V14.01,2013-06-20 08:16:00,
2013-06-20 02:21:00,45.9,30.6,24.63,SW,214,6.3,6.3,55,0.00,,---,0.00,VWS V14.01,2013-06-20 08:21:00,
2013-06-20 02:26:00,45.9,31.5,24.63,SSE,164,3.1,4.9,57,0.00,,---,0.00,VWS V14.01,2013-06-20 08:26:00,
2013-06-20 02:31:00,45.7,31.8,24.63,South,175,7.6,11.0,58,0.00,,---,0.00,VWS V14.01,2013-06-20 08:31:00,
2013-06-20 02:36:00,45.3,32.3,24.63,SSE,157,8.7,8.7,60,0.00,,---,0.00,VWS V14.01,2013-06-20 08:36:00,
2013-06-20 02:41:00,45.1,32.9,24.63,SSE,155,12.8,12.8,62,0.00,,---,0.00,VWS V14.01,2013-06-20 08:41:00,
2013-06-20 02:46:00,45.0,32.3,24.63,South,178,7.6,7.6,61,0.00,,---,0.00,VWS V14.01,2013-06-20 08:46:00,
2013-06-20 02:51:00,45.0,32.7,24.63,South,184,11.0,11.0,62,0.00,,---,0.00,VWS V14.01,2013-06-20 08:51:00,
2013-06-20 02:56:00,44.8,32.6,24.63,SSE,153,12.8,12.8,62,0.00,,---,0.00,VWS V14.01,2013-06-20 08:56:00,
2013-06-20 03:01:00,44.8,32.6,24.63,SSE,162,10.1,11.9,62,0.00,,---,0.00,VWS V14.01,2013-06-20 09:01:00,
2013-06-20 03:06:00,44.6,32.8,24.63,South,180,11.4,11.4,63,0.00,,---,0.00,VWS V14.01,2013-06-20 09:06:00,
2013-06-20 03:11:00,44.6,32.8,24.63,South,170,8.3,15.0,63,0.00,,---,0.00,VWS V14.01,2013-06-20 09:11:00,
2013-06-20 03:16:00,44.8,32.6,24.63,SSE,159,10.5,11.0,62,0.00,,---,0.00,VWS V14.01,2013-06-20 09:16:00,
2013-06-20 03:21:00,44.8,32.2,24.63,SSW,208,11.0,11.0,61,0.00,,---,0.00,VWS V14.01,2013-06-20 09:21:00,
2013-06-20 03:26:00,45.0,31.9,24.63,SW,214,5.4,8.3,60,0.00,,---,0.00,VWS V14.01,2013-06-20 09:26:00,
2013-06-20 03:31:00,45.1,31.7,24.63,SW,224,13.2,13.2,59,0.00,,---,0.00,VWS V14.01,2013-06-20 09:31:00,
2013-06-20 03:36:00,45.1,31.3,24.63,South,181,4.9,7.6,58,0.00,,---,0.00,VWS V14.01,2013-06-20 09:36:00,
2013-06-20 03:41:00,45.1,31.3,24.63,SSE,154,5.8,6.3,58,0.00,,---,0.00,VWS V14.01,2013-06-20 09:41:00,
2013-06-20 03:46:00,45.1,31.3,24.63,WSW,239,4.9,6.3,58,0.00,,---,0.00,VWS V14.01,2013-06-20 09:46:00,
2013-06-20 03:51:00,45.1,31.3,24.63,SW,231,5.8,5.8,58,0.00,,---,0.00,VWS V14.01,2013-06-20 09:51:00,
2013-06-20 03:56:00,45.1,30.8,24.63,WSW,250,2.7,4.0,57,0.00,,---,0.00,VWS V14.01,2013-06-20 09:56:00,
2013-06-20 04:01:00,45.7,30.0,24.63,NW,325,3.1,3.1,54,0.00,,---,0.00,VWS V14.01,2013-06-20 10:01:00,
2013-06-20 04:06:00,45.7,30.5,24.63,NW,311,0.0,3.1,55,0.00,,---,0.00,VWS V14.01,2013-06-20 10:06:00,
2013-06-20 04:11:00,45.3,30.1,24.63,NW,316,0.0,0.0,55,0.00,,---,0.00,VWS V14.01,2013-06-20 10:11:00,
2013-06-20 04:16:00,45.3,29.7,24.63,NW,306,0.0,0.0,54,0.00,,---,0.00,VWS V14.01,2013-06-20 10:16:00,
2013-06-20 04:21:00,45.1,30.4,24.63,NW,306,0.0,0.0,56,0.00,,---,0.00,VWS V14.01,2013-06-20 10:21:00,
2013-06-20 04:26:00,44.6,30.3,24.63,SE,144,5.4,5.4,57,0.00,,---,0.00,VWS V14.01,2013-06-20 10:26:00,
2013-06-20 04:31:00,44.4,30.6,24.63,NE,54,2.7,3.1,58,0.00,,---,0.00,VWS V14.01,2013-06-20 10:31:00,
2013-06-20 04:36:00,44.1,30.7,24.63,ENE,62,0.0,0.0,59,0.00,,---,0.00,VWS V14.01,2013-06-20 10:36:00,
2013-06-20 04:41:00,43.9,31.3,24.63,SE,142,3.1,4.0,61,0.00,,---,0.00,VWS V14.01,2013-06-20 10:41:00,
2013-06-20 04:46:00,43.7,30.7,24.63,SE,142,0.0,0.0,60,0.00,,---,0.00,VWS V14.01,2013-06-20 10:46:00,
2013-06-20 04:51:00,43.3,30.8,24.63,NE,36,0.0,0.0,61,0.00,,---,0.00,VWS V14.01,2013-06-20 10:51:00,
2013-06-20 04:56:00,43.5,31.4,24.63,ESE,106,2.7,3.6,62,0.00,,---,0.00,VWS V14.01,2013-06-20 10:56:00,
2013-06-20 05:01:00,43.5,31.0,24.63,SSW,207,4.9,4.9,61,0.00,,---,0.00,VWS V14.01,2013-06-20 11:01:00,
2013-06-20 05:06:00,43.5,30.6,24.63,SSW,200,3.1,3.1,60,0.00,,---,0.00,VWS V14.01,2013-06-20 11:06:00,
2013-06-20 05:11:00,43.9,29.2,24.63,WNW,296,2.2,4.0,56,0.00,,---,0.00,VWS V14.01,2013-06-20 11:11:00,
2013-06-20 05:16:00,44.1,29.4,24.63,East,79,2.2,4.9,56,0.00,,---,0.00,VWS V14.01,2013-06-20 11:16:00,
2013-06-20 05:21:00,44.1,28.9,24.63,WNW,302,3.6,3.6,55,0.00,,---,0.00,VWS V14.01,2013-06-20 11:21:00,
2013-06-20 05:26:00,43.9,29.2,24.63,SW,227,2.7,4.0,56,0.00,,---,0.00,VWS V14.01,2013-06-20 11:26:00,
2013-06-20 05:31:00,43.9,29.2,24.63,SW,223,5.8,5.8,56,0.00,,---,0.00,VWS V14.01,2013-06-20 11:31:00,
2013-06-20 05:36:00,43.9,29.2,24.63,WSW,237,2.2,2.2,56,0.00,,---,0.00,VWS V14.01,2013-06-20 11:36:00,
2013-06-20 05:41:00,43.7,29.0,24.63,NNW,331,3.1,3.1,56,0.00,,---,0.00,VWS V14.01,2013-06-20 11:41:00,
2013-06-20 05:46:00,43.5,29.3,24.63,NNE,19,4.0,4.0,57,0.00,,---,0.00,VWS V14.01,2013-06-20 11:46:00,
2013-06-20 05:51:00,43.5,29.3,24.63,SE,142,0.0,0.0,57,0.00,,---,0.00,VWS V14.01,2013-06-20 11:51:00,
2013-06-20 05:56:00,43.7,29.5,24.63,SW,220,2.2,3.6,57,0.00,,---,0.00,VWS V14.01,2013-06-20 11:56:00,
2013-06-20 06:01:00,44.1,29.4,24.63,SSW,210,3.1,4.0,56,0.00,,---,0.00,VWS V14.01,2013-06-20 12:01:00,
2013-06-20 06:06:00,44.4,29.7,24.63,SSE,162,5.8,8.3,56,0.00,,---,0.00,VWS V14.01,2013-06-20 12:06:00,
2013-06-20 06:11:00,44.2,30.0,24.63,SSE,157,10.5,10.5,57,0.00,,---,0.00,VWS V14.01,2013-06-20 12:11:00,
2013-06-20 06:15:00,44.2,30.8,24.63,SE,144,4.0,8.1,59,0.00,,---,0.00,VWS V14.01,2013-06-20 12:15:00,
2013-06-20 06:20:00,44.2,31.2,24.63,SW,226,8.3,8.3,60,0.00,,---,0.00,VWS V14.01,2013-06-20 12:20:00,
2013-06-20 06:25:00,44.2,31.2,24.63,SSE,163,8.7,14.1,60,0.00,,---,0.00,VWS V14.01,2013-06-20 12:25:00,
2013-06-20 06:30:00,44.1,31.9,24.63,SSW,204,9.2,13.2,62,0.00,,---,0.00,VWS V14.01,2013-06-20 12:30:00,
2013-06-20 06:35:00,44.2,31.2,24.63,SE,142,7.2,11.0,60,0.00,,---,0.00,VWS V14.01,2013-06-20 12:35:00,
2013-06-20 06:40:00,44.1,31.9,24.63,SSE,156,11.0,13.2,62,0.00,,---,0.00,VWS V14.01,2013-06-20 12:40:00,
2013-06-20 06:45:00,44.2,32.1,24.63,SE,137,7.6,15.4,62,0.00,,---,0.00,VWS V14.01,2013-06-20 12:45:00,
2013-06-20 06:50:00,44.2,32.1,24.63,SSE,166,7.2,13.2,62,0.00,,---,0.00,VWS V14.01,2013-06-20 12:50:00,
2013-06-20 06:55:00,44.2,32.1,24.66,SW,231,8.7,15.0,62,0.00,,---,0.00,VWS V14.01,2013-06-20 12:55:00,
2013-06-20 07:00:00,44.4,32.2,24.66,South,173,16.3,16.3,62,0.00,,---,0.00,VWS V14.01,2013-06-20 13:00:00,
2013-06-20 07:05:00,44.4,32.2,24.66,SSE,167,8.3,10.5,62,0.00,,---,0.00,VWS V14.01,2013-06-20 13:05:00,
2013-06-20 07:10:00,44.4,32.6,24.66,South,176,17.4,17.4,63,0.00,,---,0.00,VWS V14.01,2013-06-20 13:10:00,
2013-06-20 07:15:00,44.2,32.5,24.66,SSW,192,5.8,13.2,63,0.00,,---,0.00,VWS V14.01,2013-06-20 13:15:00,
2013-06-20 07:20:00,44.4,32.6,24.66,SSE,157,15.4,15.4,63,0.00,,---,0.00,VWS V14.01,2013-06-20 13:20:00,
2013-06-20 07:25:00,44.4,31.8,24.66,South,170,6.3,6.3,61,0.00,,---,0.00,VWS V14.01,2013-06-20 13:25:00,
2013-06-20 07:30:00,44.6,32.0,24.66,SE,136,8.1,8.7,61,0.00,,---,0.00,VWS V14.01,2013-06-20 13:30:00,
2013-06-20 07:35:00,44.8,31.8,24.66,ESE,117,3.1,3.6,60,0.00,,---,0.00,VWS V14.01,2013-06-20 13:35:00,
2013-06-20 07:40:00,44.8,32.2,24.66,SSE,151,10.1,12.8,61,0.00,,---,0.00,VWS V14.01,2013-06-20 13:40:00,
2013-06-20 07:45:00,44.8,32.2,24.66,SSE,162,6.3,10.5,61,0.00,,---,0.00,VWS V14.01,2013-06-20 13:45:00,
2013-06-20 07:50:00,44.6,31.6,24.66,SSW,192,11.0,11.0,60,0.00,,---,0.00,VWS V14.01,2013-06-20 13:50:00,
2013-06-20 07:55:00,44.8,31.8,24.66,SSE,164,8.7,9.6,60,0.00,,---,0.00,VWS V14.01,2013-06-20 13:55:00,
2013-06-20 08:00:00,44.6,32.0,24.66,South,170,8.7,8.7,61,0.00,,---,0.00,VWS V14.01,2013-06-20 14:00:00,
2013-06-20 08:05:00,44.8,31.8,24.66,SE,146,11.0,11.0,60,0.00,,---,0.00,VWS V14.01,2013-06-20 14:05:00,
2013-06-20 08:10:00,44.8,32.2,24.66,South,171,6.3,12.8,61,0.00,,---,0.00,VWS V14.01,2013-06-20 14:10:00,
2013-06-20 08:15:00,45.0,31.9,24.66,South,186,6.3,9.6,60,0.00,,---,0.00,VWS V14.01,2013-06-20 14:15:00,
2013-06-20 08:20:00,45.1,31.7,24.66,South,173,13.2,13.2,59,0.00,,---,0.00,VWS V14.01,2013-06-20 14:20:00,
2013-06-20 08:25:00,45.1,32.5,24.69,SW,223,3.1,3.1,61,0.00,,---,0.00,VWS V14.01,2013-06-20 14:25:00,
2013-06-20 08:30:00,45.3,32.7,24.69,SW,236,2.7,5.8,61,0.00,,---,0.00,VWS V14.01,2013-06-20 14:30:00,
2013-06-20 08:35:00,45.7,32.2,24.69,WSW,248,4.9,10.1,59,0.00,,---,0.00,VWS V14.01,2013-06-20 14:35:00,
2013-06-20 08:40:00,46.0,32.1,24.69,SE,143,4.0,6.3,58,0.00,,---,0.00,VWS V14.01,2013-06-20 14:40:00,
2013-06-20 08:45:00,46.2,31.8,24.69,SSW,207,7.6,8.3,57,0.00,,---,0.00,VWS V14.01,2013-06-20 14:45:00,
2013-06-20 08:50:00,46.2,32.7,24.69,SSE,153,10.1,12.3,59,0.00,,---,0.00,VWS V14.01,2013-06-20 14:50:00,
2013-06-20 08:55:00,46.6,32.2,24.69,SW,235,8.1,8.1,57,0.00,,---,0.00,VWS V14.01,2013-06-20 14:55:00,
2013-06-20 09:00:00,46.6,32.6,24.69,ESE,115,7.6,8.1,58,0.00,,---,0.00,VWS V14.01,2013-06-20 15:00:00,
2013-06-20 09:05:00,46.8,32.8,24.69,SSE,166,7.2,7.2,58,0.00,,---,0.00,VWS V14.01,2013-06-20 15:05:00,
2013-06-20 09:10:00,46.6,32.2,24.69,South,181,4.0,7.6,57,0.00,,---,0.00,VWS V14.01,2013-06-20 15:10:00,
2013-06-20 09:15:00,46.6,32.2,24.69,SSE,161,8.1,8.1,57,0.00,,---,0.00,VWS V14.01,2013-06-20 15:15:00,
2013-06-20 09:20:00,46.4,32.4,24.69,SW,229,7.6,12.3,58,0.00,,---,0.00,VWS V14.01,2013-06-20 15:20:00,
2013-06-20 09:25:00,46.6,32.2,24.69,SSE,154,12.8,12.8,57,0.00,,---,0.00,VWS V14.01,2013-06-20 15:25:00,
2013-06-20 09:30:00,46.6,32.2,24.69,SSE,163,9.6,13.2,57,0.00,,---,0.00,VWS V14.01,2013-06-20 15:30:00,
2013-06-20 09:35:00,46.4,32.0,24.69,South,190,5.8,12.3,57,0.00,,---,0.00,VWS V14.01,2013-06-20 15:35:00,
2013-06-20 09:40:00,46.4,32.0,24.69,SSW,200,7.2,8.3,57,0.00,,---,0.00,VWS V14.01,2013-06-20 15:40:00,
2013-06-20 09:45:00,46.9,31.6,24.69,SSE,149,5.8,8.1,55,0.00,,---,0.00,VWS V14.01,2013-06-20 15:45:00,
2013-06-20 09:50:00,46.8,31.9,24.69,SSE,157,6.7,6.7,56,0.00,,---,0.00,VWS V14.01,2013-06-20 15:50:00,
2013-06-20 09:55:00,46.6,32.6,24.69,SW,224,10.1,10.5,58,0.00,,---,0.00,VWS V14.01,2013-06-20 15:55:00,
2013-06-20 10:00:00,46.8,32.3,24.69,South,191,12.3,13.2,57,0.00,,---,0.00,VWS V14.01,2013-06-20 16:00:00,
2013-06-20 10:05:00,46.9,32.5,24.69,SSE,153,12.3,12.3,57,0.00,,---,0.00,VWS V14.01,2013-06-20 16:05:00,
2013-06-20 10:10:00,46.9,33.0,24.69,SSE,154,12.3,12.3,58,0.00,,---,0.00,VWS V14.01,2013-06-20 16:10:00,
2013-06-20 10:15:00,46.8,32.8,24.69,SSE,167,8.1,11.0,58,0.00,,---,0.00,VWS V14.01,2013-06-20 16:15:00,
2013-06-20 10:20:00,47.1,32.2,24.69,South,171,8.7,8.7,56,0.00,,---,0.00,VWS V14.01,2013-06-20 16:20:00,
2013-06-20 10:25:00,47.1,32.2,24.72,South,179,7.2,8.7,56,0.00,,---,0.00,VWS V14.01,2013-06-20 16:25:00,
2013-06-20 10:30:00,47.3,33.3,24.72,SSW,204,12.8,12.8,58,0.00,,---,0.00,VWS V14.01,2013-06-20 16:30:00,
2013-06-20 10:35:00,47.3,32.8,24.72,South,170,8.3,11.0,57,0.00,,---,0.00,VWS V14.01,2013-06-20 16:35:00,
2013-06-20 10:40:00,47.1,33.1,24.72,SSE,153,8.7,8.7,58,0.00,,---,0.00,VWS V14.01,2013-06-20 16:40:00,
2013-06-20 10:45:00,47.7,34.5,24.72,South,183,8.1,11.0,60,0.00,,---,0.00,VWS V14.01,2013-06-20 16:45:00,
2013-06-20 10:50:00,48.4,32.5,24.72,SE,136,10.5,13.2,54,0.00,,---,0.00,VWS V14.01,2013-06-20 16:50:00,
2013-06-20 10:55:00,48.9,33.0,24.72,SSW,200,13.2,13.2,54,0.00,,---,0.00,VWS V14.01,2013-06-20 16:55:00,
2013-06-20 11:00:00,48.7,33.3,24.72,WSW,257,7.6,8.7,55,0.00,,---,0.00,VWS V14.01,2013-06-20 17:00:00,
2013-06-20 11:05:00,49.6,33.7,24.72,South,170,10.5,15.4,54,0.00,,---,0.00,VWS V14.01,2013-06-20 17:05:00,
2013-06-20 11:10:00,50.2,32.8,24.72,SE,144,8.1,15.4,51,0.00,,---,0.00,VWS V14.01,2013-06-20 17:10:00,
2013-06-20 11:15:00,50.7,32.3,24.72,South,180,9.2,9.2,49,0.00,,---,0.00,VWS V14.01,2013-06-20 17:15:00,
2013-06-20 11:20:00,50.7,31.8,24.72,SE,129,5.4,5.4,48,0.00,,---,0.00,VWS V14.01,2013-06-20 17:20:00,
2013-06-20 11:25:00,51.6,32.1,24.69,South,175,4.9,8.1,47,0.00,,---,0.00,VWS V14.01,2013-06-20 17:25:00,
2013-06-20 11:30:00,52.2,32.0,24.69,SE,144,8.1,8.1,46,0.00,,---,0.00,VWS V14.01,2013-06-20 17:30:00,
2013-06-20 11:35:00,52.2,31.5,24.69,South,186,16.3,16.3,45,0.00,,---,0.00,VWS V14.01,2013-06-20 17:35:00,
2013-06-20 11:40:00,51.6,33.6,24.72,SE,140,12.3,13.6,50,0.00,,---,0.00,VWS V14.01,2013-06-20 17:40:00,
2013-06-20 11:45:00,50.4,32.4,24.72,ESE,117,17.4,17.4,50,0.00,,---,0.00,VWS V14.01,2013-06-20 17:45:00,
2013-06-20 11:50:00,51.4,32.9,24.72,SE,140,11.0,11.0,49,0.00,,---,0.00,VWS V14.01,2013-06-20 17:50:00,
2013-06-20 11:55:00,52.2,32.0,24.72,SE,124,8.1,8.1,46,0.00,,---,0.00,VWS V14.01,2013-06-20 17:55:00,
2013-06-20 12:00:00,51.8,30.6,24.72,SE,126,13.2,13.2,44,0.00,,---,0.00,VWS V14.01,2013-06-20 18:00:00,
2013-06-20 12:05:00,51.1,32.1,24.72,SE,127,14.1,14.1,48,0.00,,---,0.00,VWS V14.01,2013-06-20 18:05:00,
2013-06-20 12:10:00,51.8,31.7,24.72,SE,140,6.3,12.8,46,0.00,,---,0.00,VWS V14.01,2013-06-20 18:10:00,
2013-06-20 12:15:00,51.8,31.7,24.72,SSE,163,10.1,11.9,46,0.00,,---,0.00,VWS V14.01,2013-06-20 18:15:00,
2013-06-20 12:20:00,50.9,33.9,24.72,South,175,7.6,8.3,52,0.00,,---,0.00,VWS V14.01,2013-06-20 18:20:00,
2013-06-20 12:25:00,51.1,33.6,24.72,SSE,153,4.9,12.3,51,0.00,,---,0.00,VWS V14.01,2013-06-20 18:25:00,
2013-06-20 12:30:00,52.2,29.8,24.72,SW,216,6.3,8.1,42,0.00,,---,0.00,VWS V14.01,2013-06-20 18:30:00,
2013-06-20 12:35:00,51.6,31.5,24.72,South,177,12.8,12.8,46,0.00,,---,0.00,VWS V14.01,2013-06-20 18:35:00,
2013-06-20 12:40:00,51.4,31.4,24.72,SSE,163,25.5,25.5,46,0.00,,---,0.00,VWS V14.01,2013-06-20 18:40:00,
2013-06-20 12:45:00,50.2,30.2,24.72,ESE,123,11.0,22.4,46,0.00,,---,0.00,VWS V14.01,2013-06-20 18:45:00,
2013-06-20 12:50:00,50.0,30.0,24.72,SSE,154,13.2,19.7,46,0.00,,---,0.00,VWS V14.01,2013-06-20 18:50:00,
2013-06-20 12:55:00,50.5,31.1,24.72,South,191,6.3,6.3,47,0.00,,---,0.00,VWS V14.01,2013-06-20 18:55:00,
2013-06-20 13:00:00,52.5,29.5,24.72,SSW,207,8.1,10.1,41,0.00,,---,0.00,VWS V14.01,2013-06-20 19:00:00,
2013-06-20 13:05:00,54.0,32.0,24.72,SE,139,5.8,5.8,43,0.00,,---,0.00,VWS V14.01,2013-06-20 19:05:00,
2013-06-20 13:10:00,54.0,30.2,24.72,South,179,8.1,10.1,40,0.00,,---,0.00,VWS V14.01,2013-06-20 19:10:00,
2013-06-20 13:15:00,53.8,28.8,24.72,SSE,157,8.3,8.3,38,0.00,,---,0.00,VWS V14.01,2013-06-20 19:15:00,
2013-06-20 13:20:00,54.0,28.3,24.72,SE,129,11.0,12.8,37,0.00,,---,0.00,VWS V14.01,2013-06-20 19:20:00,
2013-06-20 13:25:00,54.5,28.8,24.72,SE,136,10.5,11.0,37,0.00,,---,0.00,VWS V14.01,2013-06-20 19:25:00,
2013-06-20 13:30:00,54.7,28.9,24.72,SSE,148,11.0,20.6,37,0.00,,---,0.00,VWS V14.01,2013-06-20 19:30:00,
2013-06-20 13:35:00,55.4,29.6,24.72,SW,220,6.3,6.3,37,0.00,,---,0.00,VWS V14.01,2013-06-20 19:35:00,
2013-06-20 13:40:00,55.8,29.2,24.72,SW,214,9.2,9.2,36,0.00,,---,0.00,VWS V14.01,2013-06-20 19:40:00,
2013-06-20 13:45:00,55.2,28.8,24.72,SSW,193,6.3,10.1,36,0.00,,---,0.00,VWS V14.01,2013-06-20 19:45:00,
2013-06-20 13:50:00,52.3,33.8,24.72,South,170,5.8,12.8,49,0.00,,---,0.00,VWS V14.01,2013-06-20 19:50:00,
2013-06-20 13:55:00,49.6,33.7,24.75,SSW,196,8.1,8.3,54,0.00,,---,0.00,VWS V14.01,2013-06-20 19:55:00,
2013-06-20 14:00:00,49.3,34.3,24.75,South,178,3.1,3.6,56,0.00,,---,0.00,VWS V14.01,2013-06-20 20:00:00,
2013-06-20 14:05:00,50.4,35.7,24.75,WSW,256,3.1,3.6,57,0.00,,---,0.00,VWS V14.01,2013-06-20 20:05:00,
2013-06-20 14:10:00,52.2,33.6,24.75,WSW,257,0.0,5.8,49,0.00,,---,0.00,VWS V14.01,2013-06-20 20:10:00,
2013-06-20 14:15:00,53.1,31.7,24.75,WNW,298,3.1,6.3,44,0.00,,---,0.00,VWS V14.01,2013-06-20 20:15:00,
2013-06-20 14:20:00,53.1,31.2,24.75,West,259,4.0,6.3,43,0.00,,---,0.00,VWS V14.01,2013-06-20 20:20:00,
2013-06-20 14:25:00,52.9,28.0,24.75,SW,223,13.2,13.2,38,0.00,,---,0.00,VWS V14.01,2013-06-20 20:25:00,
2013-06-20 14:30:00,52.5,28.9,24.75,WSW,238,6.3,6.3,40,0.00,,---,0.00,VWS V14.01,2013-06-20 20:30:00,
2013-06-20 14:35:00,52.7,29.1,24.75,SW,234,3.1,6.3,40,0.00,,---,0.00,VWS V14.01,2013-06-20 20:35:00,
2013-06-20 14:40:00,53.6,28.6,24.75,North,353,3.6,3.6,38,0.00,,---,0.00,VWS V14.01,2013-06-20 20:40:00,
2013-06-20 14:45:00,54.5,29.4,24.75,ENE,57,7.6,7.6,38,0.00,,---,0.00,VWS V14.01,2013-06-20 20:45:00,
2013-06-20 14:50:00,55.8,30.6,24.75,WSW,239,2.7,3.6,38,0.00,,---,0.00,VWS V14.01,2013-06-20 20:50:00,
2013-06-20 14:55:00,56.8,31.5,24.75,NNE,26,2.7,6.3,38,0.00,,---,0.00,VWS V14.01,2013-06-20 20:55:00,
2013-06-20 15:00:00,56.8,30.2,24.75,NW,311,2.7,5.4,36,0.00,,---,0.00,VWS V14.01,2013-06-20 21:00:00,
2013-06-20 15:05:00,57.0,29.7,24.75,SSE,166,4.9,4.9,35,0.00,,---,0.00,VWS V14.01,2013-06-20 21:05:00,
2013-06-20 15:10:00,57.2,29.8,24.75,SE,128,2.2,6.3,35,0.00,,---,0.00,VWS V14.01,2013-06-20 21:10:00,
2013-06-20 15:15:00,57.2,29.8,24.75,WNW,297,3.1,8.3,35,0.00,,---,0.00,VWS V14.01,2013-06-20 21:15:00,
2013-06-20 15:20:00,55.9,29.4,24.75,NW,305,7.6,10.1,36,0.00,,---,0.00,VWS V14.01,2013-06-20 21:20:00,
2013-06-20 15:25:00,55.0,29.3,24.75,SW,218,7.6,8.7,37,0.00,,---,0.00,VWS V14.01,2013-06-20 21:25:00,
2013-06-20 15:30:00,54.1,29.1,24.75,West,261,4.9,6.3,38,0.00,,---,0.00,VWS V14.01,2013-06-20 21:30:00,
2013-06-20 15:35:00,53.6,29.9,24.75,NNW,337,5.4,11.0,40,0.00,,---,0.00,VWS V14.01,2013-06-20 21:35:00,
2013-06-20 15:40:00,52.9,32.1,24.75,WNW,284,8.7,13.2,45,0.00,,---,0.00,VWS V14.01,2013-06-20 21:40:00,
2013-06-20 15:45:00,51.6,33.1,24.75,WNW,292,8.1,15.0,49,0.00,,---,0.00,VWS V14.01,2013-06-20 21:45:00,
2013-06-20 15:50:00,51.3,32.3,24.75,West,264,12.8,13.6,48,0.00,,---,0.00,VWS V14.01,2013-06-20 21:50:00,
2013-06-20 15:55:00,51.1,32.6,24.75,WNW,285,13.6,13.6,49,0.00,,---,0.00,VWS V14.01,2013-06-20 21:55:00,
2013-06-20 16:00:00,51.1,32.6,24.75,West,262,8.3,8.3,49,0.00,,---,0.00,VWS V14.01,2013-06-20 22:00:00,
2013-06-20 16:05:00,51.6,32.1,24.75,West,274,5.4,5.8,47,0.00,,---,0.00,VWS V14.01,2013-06-20 22:05:00,
2013-06-20 16:10:00,52.2,32.0,24.75,WNW,297,10.1,10.1,46,0.00,,---,0.00,VWS V14.01,2013-06-20 22:10:00,
2013-06-20 16:14:00,52.3,31.6,24.75,NW,317,5.8,8.3,45,0.00,,---,0.00,VWS V14.01,2013-06-20 22:14:00,
2013-06-20 16:19:00,52.5,30.7,24.75,NW,314,8.7,8.7,43,0.00,,---,0.00,VWS V14.01,2013-06-20 22:19:00,
2013-06-20 16:24:00,53.1,30.6,24.75,NW,318,5.8,8.1,42,0.00,,---,0.00,VWS V14.01,2013-06-20 22:24:00,
2013-06-20 16:29:00,53.4,30.9,24.75,West,275,4.9,8.3,42,0.00,,---,0.00,VWS V14.01,2013-06-20 22:29:00,
2013-06-20 16:34:00,53.6,31.7,24.75,West,272,4.0,6.3,43,0.00,,---,0.00,VWS V14.01,2013-06-20 22:34:00,
2013-06-20 16:39:00,53.6,31.1,24.75,SW,231,4.0,7.6,42,0.00,,---,0.00,VWS V14.01,2013-06-20 22:39:00,
2013-06-20 16:44:00,54.5,31.3,24.75,West,280,6.3,8.1,41,0.00,,---,0.00,VWS V14.01,2013-06-20 22:44:00,
2013-06-20 16:49:00,55.0,30.5,24.75,WSW,253,3.1,4.9,39,0.00,,---,0.00,VWS V14.01,2013-06-20 22:49:00,
2013-06-20 16:54:00,55.4,30.9,24.75,West,272,5.4,5.4,39,0.00,,---,0.00,VWS V14.01,2013-06-20 22:54:00,
2013-06-20 16:59:00,55.2,30.7,24.75,WNW,285,4.0,4.9,39,0.00,,---,0.00,VWS V14.01,2013-06-20 22:59:00,
2013-06-20 17:04:00,55.4,30.2,24.75,WNW,284,4.5,5.8,38,0.00,,---,0.00,VWS V14.01,2013-06-20 23:04:00,
2013-06-20 17:09:00,55.9,30.1,24.75,West,279,5.8,5.8,37,0.00,,---,0.00,VWS V14.01,2013-06-20 23:09:00,
2013-06-20 17:14:00,56.1,30.2,24.75,NW,314,0.0,0.0,37,0.00,,---,0.00,VWS V14.01,2013-06-20 23:14:00,
2013-06-20 17:19:00,56.7,30.7,24.75,NW,322,3.1,3.1,37,0.00,,---,0.00,VWS V14.01,2013-06-20 23:19:00,
2013-06-20 17:24:00,56.8,30.9,24.75,SSE,157,5.8,5.8,37,0.00,,---,0.00,VWS V14.01,2013-06-20 23:24:00,
2013-06-20 17:29:00,56.8,28.8,24.75,SSW,195,4.0,6.3,34,0.00,,---,0.00,VWS V14.01,2013-06-20 23:29:00,
2013-06-20 17:34:00,57.2,29.1,24.75,NW,307,6.7,7.6,34,0.00,,---,0.00,VWS V14.01,2013-06-20 23:34:00,
2013-06-20 17:39:00,56.7,30.7,24.75,NW,318,10.1,12.3,37,0.00,,---,0.00,VWS V14.01,2013-06-20 23:39:00,
2013-06-20 17:44:00,54.7,30.9,24.75,WNW,283,8.7,11.0,40,0.00,,---,0.00,VWS V14.01,2013-06-20 23:44:00,
2013-06-20 17:49:00,53.6,30.5,24.75,WSW,245,5.8,13.2,41,0.00,,---,0.00,VWS V14.01,2013-06-20 23:49:00,
2013-06-20 17:54:00,52.9,31.0,24.75,WNW,302,7.6,8.3,43,0.00,,---,0.00,VWS V14.01,2013-06-20 23:54:00,
2013-06-20 17:59:00,52.5,30.1,24.75,WNW,300,15.9,15.9,42,0.00,,---,0.00,VWS V14.01,2013-06-20 23:59:00,
2013-06-20 18:04:00,52.7,31.4,24.75,NW,316,7.2,7.2,44,0.00,,---,0.00,VWS V14.01,2013-06-21 00:04:00,
2013-06-20 18:09:00,53.1,31.2,24.75,West,264,15.4,15.4,43,0.00,,---,0.00,VWS V14.01,2013-06-21 00:09:00,
2013-06-20 18:14:00,53.1,31.2,24.75,West,273,9.6,9.6,43,0.00,,---,0.00,VWS V14.01,2013-06-21 00:14:00,
2013-06-20 18:19:00,52.9,31.0,24.75,West,268,13.2,13.6,43,0.00,,---,0.00,VWS V14.01,2013-06-21 00:19:00,
2013-06-20 18:24:00,52.2,30.4,24.78,WNW,285,6.7,13.2,43,0.00,,---,0.00,VWS V14.01,2013-06-21 00:24:00,
2013-06-20 18:29:00,51.6,31.0,24.78,West,266,8.1,8.3,45,0.00,,---,0.00,VWS V14.01,2013-06-21 00:29:00,
2013-06-20 18:34:00,51.4,30.8,24.78,WSW,243,9.6,12.8,45,0.00,,---,0.00,VWS V14.01,2013-06-21 00:34:00,
2013-06-20 18:39:00,52.2,30.4,24.78,SW,218,5.4,8.3,43,0.00,,---,0.00,VWS V14.01,2013-06-21 00:39:00,
2013-06-20 18:44:00,52.7,30.9,24.78,SSW,210,3.6,10.1,43,0.00,,---,0.00,VWS V14.01,2013-06-21 00:44:00,
2013-06-20 18:49:00,53.4,30.9,24.78,WSW,247,5.8,6.3,42,0.00,,---,0.00,VWS V14.01,2013-06-21 00:49:00,
2013-06-20 18:54:00,53.8,30.6,24.78,SW,229,7.2,8.1,41,0.00,,---,0.00,VWS V14.01,2013-06-21 00:54:00,
2013-06-20 18:59:00,54.3,31.1,24.78,SW,215,6.3,7.6,41,0.00,,---,0.00,VWS V14.01,2013-06-21 00:59:00,
2013-06-20 19:04:00,54.9,31.6,24.78,SW,225,3.6,3.6,41,0.00,,---,0.00,VWS V14.01,2013-06-21 01:04:00,
2013-06-20 19:09:00,55.2,30.1,24.75,West,263,5.8,8.3,38,0.00,,---,0.00,VWS V14.01,2013-06-21 01:09:00,
2013-06-20 19:14:00,55.9,30.1,24.75,West,281,4.0,8.7,37,0.00,,---,0.00,VWS V14.01,2013-06-21 01:14:00,
2013-06-20 19:19:00,55.8,29.2,24.75,WNW,287,8.7,8.7,36,0.00,,---,0.00,VWS V14.01,2013-06-21 01:19:00,
2013-06-20 19:24:00,55.9,30.1,24.78,NW,310,8.1,8.1,37,0.00,,---,0.00,VWS V14.01,2013-06-21 01:24:00,
2013-06-20 19:29:00,56.3,29.7,24.78,WSW,256,6.3,6.3,36,0.00,,---,0.00,VWS V14.01,2013-06-21 01:29:00,
2013-06-20 19:34:00,56.5,29.9,24.78,SW,231,5.8,8.1,36,0.00,,---,0.00,VWS V14.01,2013-06-21 01:34:00,
2013-06-20 19:39:00,56.5,29.9,24.78,WSW,253,6.3,8.1,36,0.00,,---,0.00,VWS V14.01,2013-06-21 01:39:00,
2013-06-20 19:44:00,56.5,29.2,24.78,WNW,282,7.6,8.1,35,0.00,,---,0.00,VWS V14.01,2013-06-21 01:44:00,
2013-06-20 19:49:00,56.5,29.9,24.78,West,268,5.4,5.4,36,0.00,,---,0.00,VWS V14.01,2013-06-21 01:49:00,
2013-06-20 19:54:00,56.7,30.0,24.75,West,276,4.5,8.1,36,0.00,,---,0.00,VWS V14.01,2013-06-21 01:54:00,
2013-06-20 19:59:00,56.8,30.2,24.75,NNW,339,3.6,5.4,36,0.00,,---,0.00,VWS V14.01,2013-06-21 01:59:00,
2013-06-20 20:04:00,56.8,30.2,24.75,West,281,5.4,5.4,36,0.00,,---,0.00,VWS V14.01,2013-06-21 02:04:00,
2013-06-20 20:09:00,56.8,30.2,24.78,NW,304,6.3,8.7,36,0.00,,---,0.00,VWS V14.01,2013-06-21 02:09:00,
2013-06-20 20:14:00,56.7,29.3,24.78,WNW,297,5.8,8.1,35,0.00,,---,0.00,VWS V14.01,2013-06-21 02:14:00,
2013-06-20 20:19:00,56.3,29.7,24.78,SW,219,3.6,5.8,36,0.00,,---,0.00,VWS V14.01,2013-06-21 02:19:00,
2013-06-20 20:24:00,56.3,29.7,24.78,WNW,303,3.6,4.0,36,0.00,,---,0.00,VWS V14.01,2013-06-21 02:24:00,
2013-06-20 20:29:00,56.3,29.7,24.78,WNW,303,3.6,5.4,36,0.00,,---,0.00,VWS V14.01,2013-06-21 02:29:00,
2013-06-20 20:34:00,56.1,29.5,24.78,WSW,246,5.8,6.3,36,0.00,,---,0.00,VWS V14.01,2013-06-21 02:34:00,
2013-06-20 20:39:00,55.8,29.2,24.78,West,263,3.1,6.3,36,0.00,,---,0.00,VWS V14.01,2013-06-21 02:39:00,
2013-06-20 20:44:00,55.6,29.1,24.78,NW,304,5.4,5.4,36,0.00,,---,0.00,VWS V14.01,2013-06-21 02:44:00,
2013-06-20 20:49:00,55.2,29.4,24.78,WNW,287,5.4,5.4,37,0.00,,---,0.00,VWS V14.01,2013-06-21 02:49:00,
2013-06-20 20:54:00,54.7,28.9,24.78,West,279,3.6,4.0,37,0.00,,---,0.00,VWS V14.01,2013-06-21 02:54:00,
2013-06-20 20:59:00,54.5,28.8,24.78,West,270,4.0,4.9,37,0.00,,---,0.00,VWS V14.01,2013-06-21 02:59:00,
2013-06-20 21:04:00,54.3,29.3,24.78,WNW,302,5.4,5.4,38,0.00,,---,0.00,VWS V14.01,2013-06-21 03:04:00,
2013-06-20 21:09:00,54.0,29.0,24.81,NW,325,4.0,5.4,38,0.00,,---,0.00,VWS V14.01,2013-06-21 03:09:00,
2013-06-20 21:14:00,53.8,30.0,24.81,NE,48,0.0,0.0,40,0.00,,---,0.00,VWS V14.01,2013-06-21 03:14:00,
2013-06-20 21:19:00,53.6,29.9,24.81,South,178,5.8,5.8,40,0.00,,---,0.00,VWS V14.01,2013-06-21 03:19:00,
2013-06-20 21:24:00,51.8,30.0,24.81,SSW,208,6.3,10.1,43,0.00,,---,0.00,VWS V14.01,2013-06-21 03:24:00,
2013-06-20 21:29:00,50.4,28.7,24.81,SE,143,12.3,12.3,43,0.00,,---,0.00,VWS V14.01,2013-06-21 03:29:00,
2013-06-20 21:34:00,49.1,29.8,24.81,SE,125,5.8,5.8,47,0.00,,---,0.00,VWS V14.01,2013-06-21 03:34:00,
2013-06-20 21:39:00,49.5,27.3,24.81,SE,140,8.3,10.1,42,0.00,,---,0.00,VWS V14.01,2013-06-21 03:39:00,
2013-06-20 21:44:00,49.6,29.2,24.81,ENE,61,4.0,4.9,45,0.00,,---,0.00,VWS V14.01,2013-06-21 03:44:00,
2013-06-20 21:49:00,50.0,28.4,24.81,SSE,159,5.4,8.1,43,0.00,,---,0.00,VWS V14.01,2013-06-21 03:49:00,
2013-06-20 21:54:00,50.2,29.1,24.83,NW,320,3.1,4.0,44,0.00,,---,0.00,VWS V14.01,2013-06-21 03:54:00,
2013-06-20 21:59:00,50.2,31.3,24.83,NE,51,3.6,7.6,48,0.00,,---,0.00,VWS V14.01,2013-06-21 03:59:00,
2013-06-20 22:01:00,50.2,31.3,24.83,NE,51,0.0,0.0,48,0.00,,---,0.00,VWS V14.01,2013-06-21 04:01:00,
2013-06-20 22:06:00,49.8,32.4,24.83,NNE,29,0.0,0.0,51,0.00,,---,0.00,VWS V14.01,2013-06-21 04:06:00,
2013-06-20 22:11:00,49.3,33.8,24.81,NNW,340,2.2,2.2,55,0.00,,---,0.00,VWS V14.01,2013-06-21 04:11:00,
2013-06-20 22:16:00,48.9,34.8,24.81,North,2,4.0,4.0,58,0.00,,---,0.00,VWS V14.01,2013-06-21 04:16:00,
2013-06-20 22:21:00,48.2,34.6,24.81,North,353,3.1,3.6,59,0.00,,---,0.00,VWS V14.01,2013-06-21 04:21:00,
2013-06-20 22:26:00,47.7,35.3,24.83,NNW,331,5.8,5.8,62,0.00,,---,0.00,VWS V14.01,2013-06-21 04:26:00,
2013-06-20 22:31:00,47.3,35.4,24.83,WSW,241,0.0,2.7,63,0.00,,---,0.00,VWS V14.01,2013-06-21 04:31:00,
2013-06-20 22:36:00,46.9,35.8,24.83,NNW,329,0.0,0.0,65,0.00,,---,0.00,VWS V14.01,2013-06-21 04:36:00,
2013-06-20 22:41:00,46.8,36.0,24.83,North,357,0.0,0.0,66,0.00,,---,0.00,VWS V14.01,2013-06-21 04:41:00,
2013-06-20 22:46:00,46.6,35.8,24.83,WNW,285,2.7,2.7,66,0.00,,---,0.00,VWS V14.01,2013-06-21 04:46:00,
2013-06-20 22:51:00,46.4,36.0,24.83,NW,321,0.0,0.0,67,0.00,,---,0.00,VWS V14.01,2013-06-21 04:51:00,
2013-06-20 22:56:00,46.2,36.3,24.86,NW,322,0.0,0.0,68,0.00,,---,0.00,VWS V14.01,2013-06-21 04:56:00,
2013-06-20 23:01:00,46.2,36.6,24.86,NW,322,0.0,0.0,69,0.00,,---,0.00,VWS V14.01,2013-06-21 05:01:00,
2013-06-20 23:06:00,46.0,36.8,24.86,NW,322,0.0,0.0,70,0.00,,---,0.00,VWS V14.01,2013-06-21 05:06:00,
2013-06-20 23:11:00,46.0,36.8,24.86,NW,322,0.0,0.0,70,0.00,,---,0.00,VWS V14.01,2013-06-21 05:11:00,
2013-06-20 23:16:00,46.0,37.2,24.86,WSW,250,0.0,0.0,71,0.00,,---,0.00,VWS V14.01,2013-06-21 05:16:00,
2013-06-20 23:21:00,46.0,36.8,24.86,ESE,120,3.6,4.0,70,0.00,,---,0.00,VWS V14.01,2013-06-21 05:21:00,
2013-06-20 23:26:00,46.2,37.0,24.86,East,85,3.6,4.5,70,0.00,,---,0.00,VWS V14.01,2013-06-21 05:26:00,
2013-06-20 23:31:00,46.2,37.3,24.86,ESE,122,2.7,2.7,71,0.00,,---,0.00,VWS V14.01,2013-06-21 05:31:00,
2013-06-20 23:36:00,46.0,37.2,24.86,East,83,3.1,3.1,71,0.00,,---,0.00,VWS V14.01,2013-06-21 05:36:00,
2013-06-20 23:41:00,46.0,37.2,24.86,East,85,4.0,4.0,71,0.00,,---,0.00,VWS V14.01,2013-06-21 05:41:00,
2013-06-20 23:46:00,46.0,37.5,24.86,ESE,102,2.7,2.7,72,0.00,,---,0.00,VWS V14.01,2013-06-21 05:46:00,
2013-06-20 23:51:00,46.0,37.2,24.86,SE,130,0.0,2.2,71,0.00,,---,0.00,VWS V14.01,2013-06-21 05:51:00,
2013-06-20 23:56:00,46.0,37.2,24.86,SE,130,0.0,0.0,71,0.00,,---,0.00,VWS V14.01,2013-06-21 05:56:00,